Location: Pl�tzky
(52.0521°N, 11.8020°E)
Time: 02:11:31
(UTC+00:00)

Envisat - Pass Details

Date: 22 November 2019
Orbit: 764 x 766 km, 98.1° (Epoch: 14 December)

Event Time Altitude Azimuth Distance (km) Brightness Sun altitude
Rises 17:05:32 0° 168° (SSE) 3,222 6.2 -16.8°
Reaches altitude 10° 17:07:50 10° 169° (S) 2,300 5.5 -17.1°
Maximum altitude 17:12:55 77° 256° (WSW) 791 3.1 -17.9°
Drops below altitude 10° 17:18:02 10° 343° (NNW) 2,316 5.6 -18.7°
Sets 17:20:21 0° 345° (NNW) 3,247 6.3 -19.0°
